Knoxville, TN

8:41 PM EDT on March 30, 2017 (GMT -0400)
McGhee Tyson

Weather History for KTYS - April, 2013

Change the Weather History Date:

Friday, April 5, 2013

  Actual Average Record
Temperature  
Mean Temperature 52 °F 56 °F  
Max Temperature 64 °F 67 °F 87 °F (1934)
Min Temperature 39 °F 44 °F 24 °F (1881)
Degree Days  
Heating Degree Days 13 10  
Month to date heating degree days 83 52  
Since 1 July heating degree days 3418 3409  
Cooling Degree Days 0 1  
Month to date cooling degree days 0 3  
Year to date cooling degree days 4 8  
Growing Degree Days 2 (Base 50)    
Moisture  
Dew Point 37 °F    
Average Humidity 58    
Maximum Humidity 86    
Minimum Humidity 30    
Precipitation  
Precipitation T in 0.13 in 3.19 in (1983)
Month to date precipitation 0.85 0.65  
Year to date precipitation 21.43 13.57  
Snow  
Snow 0.00 in 0.00 in - ()
Month to date snowfall 0.0 0.1  
Since 1 July snowfall 3.8 6.1  
Snow Depth 0.00 in    
Sea Level Pressure  
Sea Level Pressure 30.03 in    
Wind  
Wind Speed 2 mph (ENE)    
Max Wind Speed 12 mph    
Max Gust Speed 20 mph    
Visibility 8 miles    
Events Rain    
T = Trace of Precipitation, MM = Missing Value Source: NWS Daily Summary

Daily Weather History Graph

Daily Weather History Graph

Search for Another Location

Airport or City:

Trip Planner

Search our weather history database for the weather conditions in past years. The results will help you decide how hot, cold, wet, or windy it might be!

Date:

Astronomy

Apr. 05, 2013 Rise Set
Actual Time 7:16 AM EDT 8:01 PM EDT
Civil Twilight 6:50 AM EDT 8:27 PM EDT
Nautical Twilight 6:19 AM EDT 8:57 PM EDT
Astronomical Twilight 5:48 AM EDT 9:29 PM EDT
Moon 4:13 AM EDT (4/5) 3:32 PM EDT (4/5)
Length of Visible Light 13h 36m
Length of Day
12h 44m
Waning Crescent, 24% of the Moon is Illuminated
Apr 5
Waning Crescent
Apr 10
New
Apr 18
First Quarter
Apr 25
Full
May 2
Last Quarter

Hourly Weather History & Observations

Time (EDT) Temp. Windchill Dew Point Humidity Pressure Visibility Wind Dir Wind Speed Gust Speed Precip Events Conditions
12:53 AM 41.0 °F 39.0 °F 37.9 °F 89% 29.98 in 10.0 mi ENE 3.5 mph - N/A   Overcast
1:08 AM 41.0 °F 39.0 °F 37.4 °F 87% 29.98 in 10.0 mi NNE 3.5 mph - N/A   Overcast
1:53 AM 41.0 °F 39.0 °F 37.9 °F 89% 30.00 in 10.0 mi NNE 3.5 mph - N/A   Overcast
2:53 AM 41.0 °F - 37.9 °F 89% 30.01 in 4.0 mi Calm Calm - 0.00 in Rain Light Rain
3:05 AM 41.0 °F - 37.4 °F 87% 30.00 in 4.0 mi Calm Calm - 0.00 in Rain Light Rain
3:15 AM 41.0 °F - 37.4 °F 87% 30.00 in 4.0 mi Calm Calm - 0.00 in Rain Light Rain
3:29 AM 41.0 °F 39.0 °F 37.4 °F 87% 29.99 in 4.0 mi East 3.5 mph - 0.00 in Rain Light Rain
3:41 AM 41.0 °F 39.0 °F 37.4 °F 87% 30.00 in 5.0 mi East 3.5 mph - 0.00 in Rain Light Rain
3:53 AM 41.0 °F 39.0 °F 37.9 °F 89% 30.01 in 5.0 mi ENE 3.5 mph - 0.00 in Rain Light Rain
4:53 AM 41.0 °F - 37.9 °F 89% 30.02 in 7.0 mi Calm Calm - N/A   Overcast
5:53 AM 39.9 °F - 37.9 °F 93% 30.02 in 10.0 mi Calm Calm - 0.00 in Rain Light Rain
6:53 AM 39.0 °F - 37.0 °F 93% 30.03 in 5.0 mi Calm Calm - 0.00 in   Scattered Clouds
7:06 AM 39.2 °F - 37.4 °F 93% 30.02 in 4.0 mi Calm Calm - N/A   Mostly Cloudy
7:53 AM 41.0 °F - 37.9 °F 89% 30.05 in 4.0 mi Calm Calm - N/A   Overcast
8:53 AM 43.0 °F 41.3 °F 37.9 °F 82% 30.07 in 5.0 mi NE 3.5 mph - N/A   Haze
9:53 AM 44.1 °F 41.5 °F 39.0 °F 82% 30.08 in 10.0 mi East 4.6 mph - N/A   Mostly Cloudy
10:16 AM 46.4 °F 43.5 °F 42.8 °F 87% 30.07 in 10.0 mi ENE 5.8 mph - N/A   Mostly Cloudy
10:40 AM 48.2 °F - 42.8 °F 82% 30.08 in 10.0 mi NNE 6.9 mph - N/A   Mostly Cloudy
10:53 AM 48.0 °F - 41.0 °F 77% 30.08 in 10.0 mi NE 6.9 mph - N/A   Overcast
11:53 AM 50.0 °F - 41.0 °F 71% 30.08 in 10.0 mi NNE 5.8 mph - N/A   Scattered Clouds
12:53 PM 54.0 °F - 39.9 °F 59% 30.06 in 10.0 mi Variable 4.6 mph - N/A   Scattered Clouds
1:53 PM 57.0 °F - 39.0 °F 51% 30.04 in 10.0 mi Variable 3.5 mph - N/A   Partly Cloudy
2:53 PM 57.9 °F - 37.0 °F 46% 30.02 in 10.0 mi East 5.8 mph - N/A   Partly Cloudy
3:53 PM 60.1 °F - 32.0 °F 35% 30.01 in 10.0 mi Calm Calm - N/A   Partly Cloudy
4:53 PM 63.0 °F - 32.0 °F 31% 30.00 in 10.0 mi Variable 4.6 mph - N/A   Partly Cloudy
5:53 PM 63.0 °F - 30.0 °F 29% 30.00 in 10.0 mi Calm Calm - N/A   Clear
6:53 PM 62.1 °F - 30.9 °F 31% 30.02 in 10.0 mi SSW 3.5 mph - N/A   Clear
7:53 PM 57.0 °F - 33.1 °F 40% 30.03 in 10.0 mi South 4.6 mph - N/A   Clear
8:53 PM 55.9 °F - 32.0 °F 40% 30.05 in 10.0 mi Calm Calm - N/A   Clear
9:53 PM 55.0 °F - 30.9 °F 40% 30.07 in 10.0 mi Calm Calm - N/A   Clear
10:53 PM 51.1 °F - 34.0 °F 52% 30.08 in 10.0 mi Calm Calm - N/A   Clear
11:53 PM 48.9 °F - 36.0 °F 61% 30.09 in 10.0 mi Calm Calm - N/A   Clear